(317649) = 2003 FM34

Discovered at Kitt Peak on 2003-03-23 by Spacewatch.

Orbit

Orbit type: Main Belt

Note: WebGL enabled browser required.

epoch2024-03-31.0
epoch JD2460400.5
perihelion date2023-12-01.07362
perihelion JD2460279.57362
argument of perihelion (°)126.24493
ascending node (°)11.74707
inclination (°)4.84949
eccentricity0.1682607
perihelion distance (AU)1.9189475
Tisserand w.r.t. Jupiter3.6
ΔV w.r.t. Earth (km/sec)8.7
semimajor axis (AU)2.3071501
mean anomaly (°)34.01037
mean daily motion (°/day)0.28124860
aphelion distance (AU)2.695
period (years)3.5
P-vector [x]-0.74246358
P-vector [y]0.58429670
P-vector [z]0.32763577
Q-vector [x]-0.66966529
Q-vector [y]-0.65995325
Q-vector [z]-0.34060257
absolute magnitude17.67
phase slope0.15
uncertainty0
referenceE2024-GI3
observations used278
oppositions14
arc length (days)10787
first opposition used1994
last opposition used2024
residual rms (arc-secs)0.70
perturbers coarse indicatorM-v
perturbers precise indicator003Ek
first observation date used1994-09-30.0
last observation date used2024-04-12.0
computer nameMPCLINUX
Minimum Orbit Intersection Distances (in AU)
for orbit epoch: 2460400.5, reference: E2024-GI3
Mercury1.57115
Venus1.20062
Earth0.93726
Mars0.26338
Jupiter2.33142
Saturn6.89669
Uranus16.4643
Neptune27.3063

Observations

260 total observations over interval: 1994 09 30.17682 – 2024 03 05.386139
These data are available for download (format description).

Date (UT) J2000 RA J2000 Dec Magn Location Ref
1994 09 30.17682 00 17 47.44 +00 53 55.0   691 – Steward Observatory, Kitt Peak-Spacewatch MPS 172809
1994 09 30.19989 00 17 46.01 +00 53 48.1 20.3 V 691 – Steward Observatory, Kitt Peak-Spacewatch MPS 172809
1994 09 30.22298 00 17 44.46 +00 53 43.2   691 – Steward Observatory, Kitt Peak-Spacewatch MPS 172809
2001 10 14.298080 23 59 40.864 -00 37 59.92 21.15 V 645 – Apache Point-Sloan Digital Sky Survey MPS 172809
2001 10 14.301552 23 59 40.680 -00 38 00.66 22.15   645 – Apache Point-Sloan Digital Sky Survey MPS 172809
2003 03 23.36557 12 29 10.96 -01 51 32.6 19.2 V 691 – Steward Observatory, Kitt Peak-Spacewatch MPS 76324
2003 03 23.39513 12 29 09.05 -01 51 27.8 19.2 V 691 – Steward Observatory, Kitt Peak-Spacewatch MPS 76324
2003 03 23.43083 12 29 06.78 -01 51 22.2 19.5 V 691 – Steward Observatory, Kitt Peak-Spacewatch MPS 76324
2003 03 26.29578 12 26 10.55 -01 43 45.6 19.8 V 691 – Steward Observatory, Kitt Peak-Spacewatch MPS 76324
2003 03 26.32248 12 26 08.80 -01 43 41.2 19.7 V 691 – Steward Observatory, Kitt Peak-Spacewatch MPS 76324
2003 03 26.35570 12 26 06.65 -01 43 35.9 19.6 V 691 – Steward Observatory, Kitt Peak-Spacewatch MPS 76324
2003 03 31.22584 12 21 07.55 -01 30 51.0 19.5   704 – Lincoln Laboratory ETS, New Mexico MPS 76324
2003 03 31.23740 12 21 06.83 -01 30 50.0 20.0   704 – Lincoln Laboratory ETS, New Mexico MPS 76324
2003 03 31.24894 12 21 06.06 -01 30 47.6 19.5   704 – Lincoln Laboratory ETS, New Mexico MPS 76324
2003 03 31.26042 12 21 05.42 -01 30 45.9 19.5   704 – Lincoln Laboratory ETS, New Mexico MPS 76324
2003 04 01.29458 12 20 02.77 -01 28 10.2 19.0   704 – Lincoln Laboratory ETS, New Mexico MPS 76324
2003 04 01.30615 12 20 02.02 -01 28 08.6 18.9   704 – Lincoln Laboratory ETS, New Mexico MPS 76324
2003 04 01.31778 12 20 01.38 -01 28 05.9 19.2   704 – Lincoln Laboratory ETS, New Mexico MPS 76324
2003 04 01.32933 12 20 00.60 -01 28 05.3 18.8   704 – Lincoln Laboratory ETS, New Mexico MPS 76324
2003 04 01.34091 12 19 59.86 -01 28 02.9 19.3   704 – Lincoln Laboratory ETS, New Mexico MPS 76324
2003 04 07.22298 12 14 20.31 -01 14 37.9 20.8 V 691 – Steward Observatory, Kitt Peak-Spacewatch MPS 76324
2003 04 07.24916 12 14 18.78 -01 14 34.8 20.6 V 691 – Steward Observatory, Kitt Peak-Spacewatch MPS 76324
2003 04 07.27596 12 14 17.23 -01 14 31.8 20.3 V 691 – Steward Observatory, Kitt Peak-Spacewatch MPS 76324
2003 04 29.17893 12 00 24.34 -01 00 58.7 21.3 V 691 – Steward Observatory, Kitt Peak-Spacewatch MPS 78357
2003 04 29.20648 12 00 23.79 -01 01 00.3 21.7 V 691 – Steward Observatory, Kitt Peak-Spacewatch MPS 78357
2003 04 29.23398 12 00 23.22 -01 01 01.8 21.4 V 691 – Steward Observatory, Kitt Peak-Spacewatch MPS 78357
2005 11 28.34303 04 50 11.76 +30 18 06.6 20.1 V 703 – Catalina Sky Survey MPS 172809
2005 11 28.34901 04 50 11.25 +30 18 04.8 19.8 V 703 – Catalina Sky Survey MPS 172809
2005 11 28.35498 04 50 10.78 +30 18 05.3 18.4 V 703 – Catalina Sky Survey MPS 172809
2005 11 28.36093 04 50 10.42 +30 18 07.8 18.7 V 703 – Catalina Sky Survey MPS 172809
2008 10 20.21602 23 51 06.30 -01 25 12.9 21.1 V G96 – Mt. Lemmon Survey MPS 260544
2008 10 20.22153 23 51 06.04 -01 25 13.6 20.8 V G96 – Mt. Lemmon Survey MPS 260544
2008 10 20.22709 23 51 05.76 -01 25 15.0 20.6 V G96 – Mt. Lemmon Survey MPS 260544
2008 10 20.23266 23 51 05.54 -01 25 15.6 21.3 V G96 – Mt. Lemmon Survey MPS 260544
2010 02 15.480145 12 47 14.397 -01 45 36.94 20.89 g F51 – Pan-STARRS 1, Haleakala MPS 319269
2010 02 15.488471 12 47 14.283 -01 45 37.96 20.97 g F51 – Pan-STARRS 1, Haleakala MPS 319269
2010 03 04.42641 12 40 13.05 -01 45 47.6 20.2 V 691 – Steward Observatory, Kitt Peak-Spacewatch MPS 316685
2010 03 04.44404 12 40 12.29 -01 45 46.3 20.2 V 691 – Steward Observatory, Kitt Peak-Spacewatch MPS 316685
2010 03 04.46168 12 40 11.50 -01 45 44.8 20.2 V 691 – Steward Observatory, Kitt Peak-Spacewatch MPS 316685
2010 03 11.06854 12 34 59.22 -01 34 34.6 19.4 V J75 – OAM Observatory, La Sagra MPS 316686
2010 03 11.08252 12 34 58.40 -01 34 33.6 18.9 V J75 – OAM Observatory, La Sagra MPS 316686
2010 03 11.09650 12 34 57.57 -01 34 32.4 18.6 V J75 – OAM Observatory, La Sagra MPS 316686
2010 03 12.37271 12 33 49.82 -01 31 46.8 19.4 V 703 – Catalina Sky Survey MPS 317856
2010 03 12.38030 12 33 49.32 -01 31 48.7 19.9 V 703 – Catalina Sky Survey MPS 317856
2010 03 12.38799 12 33 48.88 -01 31 47.6 19.7 V 703 – Catalina Sky Survey MPS 317856
2010 03 12.39565 12 33 48.49 -01 31 46.9 19.7 V 703 – Catalina Sky Survey MPS 317856
2010 03 13.24837 12 33 02.47 -01 29 53.0 20.0 V 691 – Steward Observatory, Kitt Peak-Spacewatch MPS 317856
2010 03 13.26598 12 33 01.43 -01 29 50.7 20.1 V 691 – Steward Observatory, Kitt Peak-Spacewatch MPS 317856
2010 03 13.28359 12 33 00.42 -01 29 48.0 20.4 V 691 – Steward Observatory, Kitt Peak-Spacewatch MPS 317856
2010 03 18.32343 12 28 10.27 -01 17 37.4 19.5   704 – Lincoln Laboratory ETS, New Mexico MPS 319269
2010 03 18.33444 12 28 09.55 -01 17 34.6 19.4   704 – Lincoln Laboratory ETS, New Mexico MPS 319269
2010 03 18.34545 12 28 08.88 -01 17 33.9 20.3   704 – Lincoln Laboratory ETS, New Mexico MPS 319269
2010 03 18.35648 12 28 08.14 -01 17 32.7 20.5   704 – Lincoln Laboratory ETS, New Mexico MPS 319269
2010 03 18.36749 12 28 07.45 -01 17 30.7 19.6   704 – Lincoln Laboratory ETS, New Mexico MPS 319269
2010 04 03.393529 12 11 57.734 -00 37 05.78 19.93 i F51 – Pan-STARRS 1, Haleakala MPS 337296
2010 04 03.401967 12 11 57.213 -00 37 04.55 19.73 i F51 – Pan-STARRS 1, Haleakala MPS 337296
2010 04 06.32547 12 09 14.04 -00 31 08.4 19.3 V 703 – Catalina Sky Survey MPS 320608
2010 04 06.33245 12 09 13.50 -00 31 07.0 19.6 V 703 – Catalina Sky Survey MPS 320608
2010 04 06.33935 12 09 13.10 -00 31 05.8 19.8 V 703 – Catalina Sky Survey MPS 320608
2010 04 06.34633 12 09 12.78 -00 31 05.7 19.7 V 703 – Catalina Sky Survey MPS 320608
2010 04 09.25832 12 06 40.35 -00 26 01.4 19.5 V G96 – Mt. Lemmon Survey MPS 322177
2010 04 09.26541 12 06 39.96 -00 26 00.3 19.3 V G96 – Mt. Lemmon Survey MPS 322177
2010 04 09.27255 12 06 39.56 -00 26 00.0 19.5 V G96 – Mt. Lemmon Survey MPS 322177
2010 04 09.27965 12 06 39.20 -00 25 59.5 19.5 V G96 – Mt. Lemmon Survey MPS 322177
2010 04 17.27974 12 00 43.56 -00 17 30.8 20.1 V G96 – Mt. Lemmon Survey MPS 323416
2010 04 17.28560 12 00 43.30 -00 17 30.7 20.0 V G96 – Mt. Lemmon Survey MPS 323416
2010 04 17.29147 12 00 43.05 -00 17 30.5 19.8 V G96 – Mt. Lemmon Survey MPS 323416
2010 04 17.29745 12 00 42.84 -00 17 30.1 20.0 V G96 – Mt. Lemmon Survey MPS 323416
2011 07 26.44782 21 25 58.702 -22 08 27.11 21.5 w F51 – Pan-STARRS 1, Haleakala MPS 387187
2011 07 26.46161 21 25 57.872 -22 08 30.84 21.5 w F51 – Pan-STARRS 1, Haleakala MPS 387187
2011 07 26.47536 21 25 57.037 -22 08 34.44 21.4 w F51 – Pan-STARRS 1, Haleakala MPS 387187
2011 07 26.48917 21 25 56.214 -22 08 38.04 21.5 w F51 – Pan-STARRS 1, Haleakala MPS 387187
2012 12 05.31273 04 35 07.80 +30 04 28.7 18.9 V G96 – Mt. Lemmon Survey MPS 445884
2012 12 05.31798 04 35 07.40 +30 04 28.5 19.0 V G96 – Mt. Lemmon Survey MPS 445884
2012 12 05.32325 04 35 06.97 +30 04 28.3 18.9 V G96 – Mt. Lemmon Survey MPS 445884
2012 12 05.32847 04 35 06.57 +30 04 28.0 19.4 V G96 – Mt. Lemmon Survey MPS 445884
2013 02 01.19223 04 11 08.08 +28 06 36.9 20.8 V G96 – Mt. Lemmon Survey MPS 453628
2013 02 01.19691 04 11 08.30 +28 06 36.1 21.0 V G96 – Mt. Lemmon Survey MPS 453628
2013 02 01.20164 04 11 08.48 +28 06 36.1 20.2 V G96 – Mt. Lemmon Survey MPS 453628
2013 02 01.20631 04 11 08.70 +28 06 35.7 20.6 V G96 – Mt. Lemmon Survey MPS 453628
2015 06 26.58695 00 23 14.074 -00 15 58.91 22.0 w F51 – Pan-STARRS 1, Haleakala MPS 614558
2015 06 26.59081 00 23 14.269 -00 15 57.32 22.2 w F51 – Pan-STARRS 1, Haleakala MPS 614558
2015 06 26.59468 00 23 14.457 -00 15 56.42 22.1 w F51 – Pan-STARRS 1, Haleakala MPS 614558
2015 09 10.48955 00 26 19.664 +00 57 37.70 20.9 w F51 – Pan-STARRS 1, Haleakala MPS 626512
2015 09 10.50181 00 26 19.017 +00 57 34.87 21.0 w F51 – Pan-STARRS 1, Haleakala MPS 626512
2015 09 10.54028 00 26 16.979 +00 57 25.98 20.9 w F51 – Pan-STARRS 1, Haleakala MPS 626512
2015 09 10.55429 00 26 16.234 +00 57 22.67 20.9 w F51 – Pan-STARRS 1, Haleakala MPS 626512
2015 09 11.46236 00 25 29.573 +00 53 49.39 21.0 w F51 – Pan-STARRS 1, Haleakala MPS 628444
2015 09 11.46302 00 25 29.531 +00 53 49.23 21.0 w F51 – Pan-STARRS 1, Haleakala MPS 628444
2015 09 11.47439 00 25 28.920 +00 53 46.61 21.0 w F51 – Pan-STARRS 1, Haleakala MPS 628444
